Regional Weather Roundup
Issued by NWS

Home | Current Version | Previous Version | Graphics & Text | Print | Product List | Glossary On
Versions: 1 2 3 4 5 6 7 8 9 10 11 12 13 14 15 16 17 18 19 20 21 22 23 24 25 26 27
000
ASUS45 KSLC 190110
RWRUT

UTAH REGIONAL WEATHER ROUNDUP
NATIONAL WEATHER SERVICE SALT LAKE CITY UT
700 PM MDT FRI APR 18 2014

UTZ001>011-023>025-190200-

NORTHERN UTAH

CITY           SKY/WX    TMP DP  RH WIND       PRES   REMARKS
HILL AFB       PTSUNNY   60  34  38 N8        29.93F
LOGAN          SUNNY     58  39  49 N5        29.96F
OGDEN          PTSUNNY   62  36  37 N10       29.92F
PROVO AIRPORT  CLOUDY    59  45  58 NW13      29.92
SALT LAKE CITY PTSUNNY   61  41  47 NW8       29.92F
VERNAL         CLOUDY    67  18  15 W8        29.88S
WENDOVER       CLOUDY    64  37  36 S15       29.93R
HEBER CITY     CLOUDY    61  30  31 SW9       29.92S
WEST JORDAN    SUNNY     59  45  58 NW10      29.93F

$$

UTZ012>022-026-027-190200-

SOUTHERN UTAH

CITY           SKY/WX    TMP DP  RH WIND       PRES   REMARKS
BRYCE CANYON   PTSUNNY   52  25  35 S12       30.09S
CEDAR CITY     PTSUNNY   65  19  17 S16G25    29.95R
MILFORD        CLOUDY    68  20  16 SW16      29.90R
MOAB/CYNLANDS  SUNNY     74  19  12 SW8       29.86R
PRICE          CLOUDY    67  17  14 W9G20     29.92S
ST GEORGE      CLOUDY    77  27  15 W8        29.86R
KANAB            N/A     64  28  25 S14G21    30.00S

$$

REGIONAL REPORTS     COLORADO/ARIZONA

CITY           SKY/WX    TMP DP  RH WIND       PRES   REMARKS
CRAIG, CO      CLOUDY    61  28  28 SW10      29.94S
GRAND JUNCTION MOCLDY    71  22  15 NW16      29.88S
RIFLE          CLOUDY    69  22  16 SW9       29.92S
MONTROSE       MOCLDY    70  21  15 W9        29.96R
CORTEZ         CLOUDY    67  22  18 W22G32    30.00R
PAGE, AZ       CLOUDY    71  26  18 S14       29.94F
GRAND CANYON   CLOUDY    53  32  44 S14       30.09S
KINGMAN        CLOUDY    71  26  18 SE16G24   29.91S
FLAGSTAFF      LGT RAIN  46  37  71 S9        30.12S

$$

REGIONAL REPORTS    NEVADA/IDAHO/WYOMING

CITY           SKY/WX    TMP DP  RH WIND       PRES   REMARKS
LAS VEGAS, NV  PTSUNNY   80  28  15 S14G20    29.77S
ELY            CLOUDY    58  33  39 NE16      29.97R
ELKO           SUNNY     65  28  24 W5        29.91F
POCATELLO, ID  SUNNY     57  21  24 SW24      29.96S
BURLEY         SUNNY     57  28  33 W12       29.95S
EVANSTON, WY   MOSUNNY   54  30  40 W20       30.00S
ROCK SPRINGS   CLOUDY    55  30  38 W8        29.98S

$$



USA.gov is the U.S. government's official web portal to all federal, state and local government web resources and services.